Location: Albany
(35.0170°S, 117.8920°E)
Time: 17:37:33
(UTC+08:00)

Explorer 11/Cluster Stage 4 - Pass Details

Date: 01 February 2021
Orbit: 467 x 1257 km, 28.8° (Epoch: 02 March)

Event Time Altitude Azimuth Distance (km) Brightness Sun altitude
Rises 03:36:46 0° 323° (NW) 4,169 - -20.3°
Reaches altitude 10° 03:40:19 10° 336° (NNW) 3,227 - -19.8°
Exits shadow 03:42:50 18° 351° (N) 2,693 8.9 -19.4°
Maximum altitude 03:46:32 24° 25° (NNE) 2,321 8.8 -18.8°
Drops below altitude 10° 03:52:30 10° 74° (ENE) 3,090 10.1 -17.8°
Sets 03:55:48 0° 87° (E) 3,955 11.0 -17.3°
